Location: Stamford Observatory
(41.1241°N, 73.5498°W)
Time: 23:42:03
(UTC-04:00)

Daily predictions for brighter satellites

Satellite Brightness Start Highest point End
(mag) Time Altitude Azimuth Time Altitude Azimuth Time Altitude Azimuth
NOSS 3-2 (A) 4.2 19:01:50 10° S 19:06:55 29° ESE 19:12:19 10° NE
USA 238 DEB 3.8 19:03:44 10° SSW 19:10:45 76° ESE 19:17:48 10° NE
USA 238 3.8 19:03:49 10° SSW 19:10:52 76° ESE 19:17:54 10° NE
Cosmos 1766 4.3 19:07:42 10° SE 19:10:57 25° E 19:14:14 10° NE
Cosmos 2237 Rocket 2.2 19:05:57 10° SSW 19:11:37 76° ESE 19:17:18 10° NNE
Cosmos 2233 Rocket 4.0 19:07:49 10° S 19:14:04 75° E 19:20:24 10° N
Cosmos 1867 4.1 19:09:10 10° SW 19:14:35 67° NW 19:20:04 10° NNE
BREEZE-M DEB (TANK) 2.3 19:19:20 10° WNW 19:21:22 48° SSW 19:25:10 10° SE
Cosmos 1953 3.9 19:20:11 10° SE 19:22:39 16° E 19:25:06 10° NE
Cosmos 921 Rocket 3.6 19:20:24 10° NNW 19:24:34 60° WSW 19:28:40 10° S
Cosmos 1980 3.9 19:19:01 10° SSW 19:24:39 79° WNW 19:30:21 10° NNE
COSMOS 2455 4.2 19:20:33 10° WSW 19:26:12 42° NW 19:31:55 10° NNE
NOAA 12 4.1 19:21:08 10° SSE 19:26:20 72° ENE 19:31:36 10° N
CZ-4B DEB 4.5 19:24:50 10° ESE 19:27:01 17° ENE 19:29:12 10° NNE
ATLAS 5 CENTAUR R/B 3.1 19:24:22 10° SSE 19:27:47 20° ESE 19:31:22 10° ENE
SL-16 R/B 2.5 19:24:05 10° S 19:29:28 46° ESE 19:34:53 10° NE
Cosmos 1607 4.2 19:25:06 10° SW 19:31:16 75° WNW 19:37:27 10° NNE
ATLAS CENTAUR R/B 3.6 19:27:10 10° SSW 19:31:48 54° ESE 19:45:38 10° NE
Cosmos 292 Rocket 3.9 19:29:23 10° SSW 19:34:10 83° WNW 19:39:01 10° NNE
Spot 2 Rocket 3.5 19:31:16 10° SSE 19:36:12 59° ENE 19:41:10 10° N
Cosmos 2056 Rocket 3.6 19:30:52 10° NNW 19:36:17 67° ENE 19:41:40 10° SSE
BREEZE-M TANK 4.0 19:26:29 10° WNW 19:38:11 56° SW 19:41:43 10° SE
Cosmos 1076 Rocket 3.9 19:35:59 10° N 19:40:05 40° ENE 19:44:09 10° SSE
Cosmos-2242 4.0 19:38:59 10° SE 19:42:34 26° E 19:46:12 10° NNE
Meteor 1-22 Rocket 4.0 19:37:20 10° S 19:42:43 74° E 19:48:00 10° NNE
NOSS 3-2 (C) 3.8 19:37:22 10° S 19:42:59 42° ESE 19:49:02 10° NE
Spot 1 4.2 19:39:04 10° SSE 19:43:55 81° ENE 19:48:31 10° NNW
Resurs 01 Rocket 1.6 19:40:56 10° SSE 19:45:21 69° ENE 19:49:48 10° N
Cosmos 1437 3.0 19:42:05 10° NNW 19:45:21 74° W 19:48:36 10° S
Cosmos 1371 Rocket 4.2 19:40:24 10° NNW 19:45:42 76° WSW 19:51:01 10° SSE
Cosmos 1805 4.1 19:42:42 10° SSE 19:46:05 28° E 19:49:28 10° NNE
Cosmos 1408 Rocket 3.8 19:44:27 10° N 19:48:40 44° ENE 19:52:48 10° SSE
H-2A R/B 3.7 19:47:57 17° ESE 19:50:11 29° ENE 19:53:35 10° N
Okean 3 Rocket 3.9 19:46:12 10° N 19:50:44 75° W 19:55:15 10° S
Resurs 1-3 3.6 19:47:34 10° SSE 19:51:53 62° ENE 19:56:14 10° N
ALOS 2.6 19:48:31 10° SE 19:52:57 45° ENE 19:57:23 10° N
Cosmos 2219 Rocket 4.0 19:48:50 10° WSW 19:53:51 33° WNW 19:58:55 10° N
Helios 1B rocket 2.3 19:50:04 10° NNE 19:54:11 77° ESE 19:58:17 10° S
Cosmos 2278 Rocket 3.2 19:50:01 10° NW 19:55:26 48° WSW 20:00:49 10° S
Meteor 1-24 Rocket 3.9 19:50:12 10° NNW 19:55:54 77° W 20:01:22 10° S
Aureole 2 Rocket 2.9 19:51:38 10° SSW 19:56:01 78° ESE 20:00:22 10° NNE
SJ-6B 4.1 19:52:19 10° S 19:56:05 44° W 19:59:58 10° NNW
FREGAT/IRIS 3.8 19:53:24 10° S 19:56:24 45° W 19:59:24 10° NNW
Cosmos 2297 3.7 19:52:16 10° NNW 19:57:58 87° ENE 20:03:37 10° SSE
ASTEX 1 3.9 19:54:50 10° NNE 19:59:21 35° E 20:03:48 10° SSE
Meteor 1-28 Rocket 4.5 19:57:12 10° N 20:00:46 43° WNW 20:04:18 10° SW
Cosmos 1758 3.5 19:58:28 10° SSE 20:02:22 47° E 20:06:19 10° NNE
Cosmos 1072 Rocket 4.4 19:56:25 10° S 20:02:33 89° E 20:08:41 10° N
Cosmos 1624 Rocket 4.4 19:58:49 10° NNW 20:03:59 64° WSW 20:09:06 10° S
METEOR-M 4.4 20:00:06 10° S 20:05:26 70° WSW 20:10:48 10° NNW
Cosmos 1378 3.5 20:02:55 10° NNW 20:06:38 65° W 20:10:18 10° S
Nadezhda 4 Rocket 4.2 20:02:53 10° N 20:08:56 47° ENE 20:13:51 15° SSE
FENGYUN 3A 3.6 20:03:59 10° SSE 20:09:16 65° ENE 20:14:37 10° N
Cosmos 1743 Rocket 4.0 20:10:22 10° N 20:14:35 40° ENE 20:15:40 34° ESE
Cosmos 1544 3.4 20:15:08 41° E 20:15:13 41° E 20:18:46 10° NNE
Meteor 1-29 3.4 20:11:54 10° N 20:15:24 64° WNW 20:18:51 10° SSW
Cosmos 2369 Rocket 3.6 20:11:35 10° N 20:15:42 20° NE 20:16:32 20° ENE
Cosmos 1603 4.0 20:11:03 10° S 20:16:23 42° ESE 20:21:45 10° NE
CZ-4C R/B 3.6 20:11:50 10° WSW 20:16:51 38° NW 20:22:29 10° NNE
OAO 3 Rocket 4.0 20:13:05 10° SW 20:17:27 36° S 20:18:46 30° SE
GP-B 4.3 20:14:12 10° NNE 20:17:02 25° ENE 20:17:02 25° ENE
FengYun 1-2 T 4.4 20:14:13 10° S 20:19:44 75° WSW 20:25:15 10° NNW
ATLAS CENTAUR R/B 2.6 20:15:56 10° NW 20:19:49 38° WSW 20:23:05 12° S
USA 215 3.7 20:14:22 10° NE 20:20:48 62° NW 20:27:13 10° WSW
Cosmos 2333 Rocket 4.4 20:20:17 10° WSW 20:25:03 26° NW 20:29:50 10° N
Atlas Centaur 2 4.0 20:20:42 10° WSW 20:27:54 32° SSW 20:31:50 21° SSE
Cosmos 1943 Rocket 4.2 20:28:33 10° NNE 20:30:57 13° NE 20:31:02 13° NE
Meteor 1-21 Rocket 4.1 20:26:31 10° N 20:32:08 83° E 20:36:13 19° SSE
Cosmos 1452 Rocket 3.4 20:27:55 10° NNW 20:33:13 89° ENE 20:36:02 28° SSE
ERS-1 Rocket 3.6 20:34:26 36° ENE 20:34:26 36° ENE 20:38:57 10° N
Cosmos 2034 Rocket 4.2 20:30:25 10° SSW 20:36:38 74° W 20:42:59 10° N
SeaSat 1 2.4 20:40:15 10° NNE 20:45:14 89° WNW 20:50:10 10° SSW
Cosmos 468 4.4 20:43:18 10° SSW 20:48:35 87° ESE 20:53:51 10° NNE
Cosmos 1674 3.5 20:45:11 10° N 20:47:51 41° NNE 20:47:51 41° NNE
H-2A R/B 4.2 20:57:32 17° NNE 20:57:32 17° NNE 20:58:50 10° NNE
NOSS 3-2 (A) 4.3 20:51:25 10° SW 20:57:22 51° NW 21:03:52 10° NNE
Cosmos 1420 Rocket 3.9 20:52:58 10° NNW 20:58:18 83° ENE 20:58:50 72° SE
Cosmos 1953 3.9 20:55:08 10° SW 20:58:47 34° WNW 21:02:27 10° N
Cosmos 1269 Rocket 4.0 21:02:51 10° SSW 21:08:08 82° WNW 21:13:27 10° NNE
Cosmos 1627 Rocket 4.4 21:04:43 10° N 21:10:45 66° ENE 21:10:45 66° ENE
ATLAS 5 CENTAUR R/B 2.6 21:07:17 10° SW 21:11:58 51° NW 21:16:21 14° NNE
BREEZE-M DEB (TANK) 3.4 21:02:22 10° WNW 21:12:28 58° N 21:12:53 56° NNE
SL-16 R/B 4.2 21:08:58 10° WSW 21:13:46 27° NW 21:18:35 10° N
Cosmos 1048 Rocket 4.4 21:12:09 10° SSW 21:18:34 57° N 21:22:46 10° NNE
Envisat 3.5 21:27:01 54° NNW 21:27:01 54° NNW 21:30:57 10° NNW
Cosmos 1655 Rocket 4.2 21:38:09 10° N 21:43:17 63° NNW 21:43:17 63° NNW
Cosmos 2369 Rocket 3.3 21:54:37 10° NNW 21:58:21 41° NW 21:58:21 41° NW
Cosmos 1943 Rocket 3.9 22:10:06 10° NNW 22:12:33 27° NNW 22:12:33 27° NNW
